This demonstration page uses our WeatherBlox Daily Observations layout. Learn more.

Left ArrowRight Arrow

38.88101, -77.10428

Hourly Observations for November 3, 2018

Temp ( °F °C ) Dew Point ( °F °C ) Humidity (%) Winds ( mph kmh ) Pressure ( in mb ) Visibility ( mi km ) Precip ( " mm )
12:52 am 00:52 Cloudy 57 13.9 53 11.7 87 87 N 6 9 29.67 1005 10 16.0934 0 0
1:52 am 01:52 Mostly Cloudy 57 13.9 52 11.1 83 83 NNW 10 17 29.68 1005 10 16.0934 0 0
2:52 am 02:52 Cloudy 56 13.3 47 8.3 72 72 NW 10 17 29.7 1006 10 16.0934 0 0
3:52 am 03:52 Cloudy 55 12.8 46 7.8 72 72 NW 10 17 29.71 1006 10 16.0934 0 0
4:52 am 04:52 Cloudy 55 12.8 44 6.7 67 67 NW 10 17 29.72 1006 10 16.0934 0 0
5:52 am 05:52 Cloudy with Light Rain 53 11.7 46 7.8 77 77 W 7 11 29.77 1008 10 16.0934 0.01 0.254
6:52 am 06:52 Cloudy 52 11.1 44 6.7 75 75 WNW 9 15 29.8 1009 10 16.0934 0.02 0.508
7:52 am 07:52 Mostly Cloudy 51 10.6 43 6.1 74 74 WNW 9 15 29.83 1010 10 16.0934 0 0.0254
8:52 am 08:52 Mostly Sunny 53 11.7 41 5 64 64 W 9 15 29.88 1012 10 16.0934 0 0
9:52 am 09:52 Mostly Sunny 55 12.8 40 4.4 57 57 W 12 19 29.92 1013 10 16.0934 0 0
10:52 am 10:52 Partly Cloudy 56 13.3 39 3.9 53 53 WNW 10 17 29.97 1015 10 16.0934 0 0
11:52 am 11:52 Partly Cloudy 58 14.4 37 2.8 46 46 WNW 18 30 30.01 1016 10 16.0934 0 0
12:52 pm 12:52 Partly Cloudy 60 15.6 36 2.2 41 41 WNW 18 30 30.05 1018 10 16.0934 0 0
1:52 pm 13:52 Partly Cloudy 60 15.6 36 2.2 41 41 NW 20 31 30.06 1018 10 16.0934 0 0
2:52 pm 14:52 Mostly Sunny 60 15.6 36 2.2 41 41 NW 17 28 30.09 1019 10 16.0934 0 0
3:52 pm 15:52 Partly Cloudy 60 15.6 35 1.7 39 39 NW 14 22 30.13 1020 10 16.0934 0 0
4:52 pm 16:52 Mostly Sunny 59 15 34 1.1 39 39 WNW 13 20 30.17 1022 10 16.0934 0 0
5:52 pm 17:52 Mostly Sunny 57 13.9 33 0.6 41 41 WNW 15 24 30.22 1023 10 16.0934 0 0
6:52 pm 18:52 Mostly Clear 55 12.8 32 0 42 42 WNW 8 13 30.26 1025 10 16.0934 0 0
7:52 pm 19:52 Mostly Clear 53 11.7 32 0 45 45 Calm 30.3 1026 10 16.0934 0 0
8:52 pm 20:52 Mostly Clear 51 10.6 34 1.1 52 52 WSW 3 6 30.34 1027 10 16.0934 0 0
9:52 pm 21:52 Mostly Clear 51 10.6 35 1.7 54 54 W 6 9 30.36 1028 10 16.0934 0 0
10:52 pm 22:52 Clear 49 9.4 35 1.7 59 59 W 5 7 30.38 1029 10 16.0934 0 0
11:52 pm 23:52 Clear 49 9.4 35 1.7 59 59 WNW 5 7 30.4 1029 10 16.0934 0 0

Powered by AerisWeather